Location: Newark
(39.5667°N, 8.9833°E)
Time: 21:51:56
(UTC+00:00)

Envisat - Visible Passes

Search period start: 18 September 2019 00:00
Search period end: 28 September 2019 00:00
Orbit: 764 x 766 km, 98.1° (Epoch: 18 September)

Date Brightness Start Highest point End Pass type
(mag) Time Alt. Az. Time Alt. Az. Time Alt. Az.
18 Sep 6.0 18:59:28 10° WSW 19:02:09 14° W 19:04:52 10° WNW visible
19 Sep 4.9 18:20:34 10° SSW 18:25:05 32° W 18:29:38 10° NNW visible
20 Sep 3.3 17:43:09 10° S 17:48:12 75° WSW 17:53:18 10° NNW visible
21 Sep 5.8 18:47:19 10° SW 18:50:47 18° W 18:54:17 10° NW visible
22 Sep 4.4 18:09:00 10° SSW 18:13:46 41° W 18:18:35 10° NNW visible
24 Sep 5.5 18:35:25 10° SSW 18:39:26 23° W 18:43:29 10° NW visible
25 Sep 3.9 17:57:32 10° S 18:02:29 53° W 18:07:27 10° NNW visible
26 Sep 6.1 19:02:55 10° WSW 19:05:12 13° W 19:07:29 10° WNW visible
27 Sep 5.1 18:23:42 10° SSW 18:28:06 30° W 18:32:32 10° NW visible
